Vorticity
4 5 7 7 6 7 6 6 5 4 5 6 6 6 8 8 8 8 8 7 4 4 2 3 4 2 3 4 6 6 7 6 5 4 5 5 5 5 4 4 4 5 4 5 5 5 5 5 6 5 6 6 6 8 6 4 7 6 5 2 1 3 2 4 5 5 4 4 4 4 6 8 6 2 6 5 12 16 -4 8 14 6 6 2 9
4 6 7 7 7 7 6 6 6 6 7 7 7 7 8 8 7 7 8 8 6 6 2 2 4 3 3 4 5 5 7 7 6 5 5 5 5 5 5 5 5 5 5 6 5 5 5 4 5 4 5 4 5 6 5 7 3 1 3 2 2 4 4 5 6 7 4 3 4 5 6 8 7 1 6 5 9 15 1 9 10 3 7 2 7
4 6 7 7 8 7 6 6 7 7 7 6 6 7 9 8 7 6 7 9 9 9 4 1 3 4 3 4 5 5 7 7 7 6 6 5 4 5 5 5 5 5 5 5 5 5 4 4 5 4 4 2 6 7 3 5 2 4 7 3 3 9 11 6 6 9 8 8 6 5 6 8 8 3 7 6 5 12 6 11 8 4 10 6 9
3 5 8 9 8 6 6 5 6 7 6 5 6 8 10 9 8 7 6 10 12 11 5 1 3 4 3 3 4 5 7 8 7 5 5 4 4 5 5 5 5 5 4 4 4 4 5 5 6 5 5 3 7 7 5 7 5 4 4 4 4 8 10 8 6 7 12 14 9 5 6 7 9 5 7 8 5 10 13 13 7 6 12 8 11
3 5 8 10 9 6 5 4 5 5 5 6 6 8 10 10 8 8 7 8 10 10 4 2 3 3 4 4 4 5 7 8 7 5 5 5 5 4 4 5 4 4 4 4 3 5 8 8 9 8 8 8 7 6 7 9 8 5 3 6 6 8 11 11 7 4 10 14 11 7 7 8 9 7 7 9 7 10 16 11 5 8 10 7 7
4 5 7 11 10 7 5 4 5 4 5 5 6 7 9 11 9 7 6 6 6 6 4 3 4 3 3 4 5 5 6 7 7 7 6 6 6 4 4 4 3 3 4 4 4 6 9 10 11 10 10 11 10 8 8 10 12 10 10 9 6 10 10 8 8 8 10 13 12 9 9 7 8 8 7 11 8 10 15 9 7 9 6 6 7
4 5 5 10 11 7 5 4 4 4 4 4 5 6 8 11 10 8 6 6 5 5 5 4 4 3 3 3 4 5 5 6 6 7 6 7 5 4 4 3 3 3 4 4 5 7 8 10 9 10 9 9 12 11 9 10 11 10 11 10 6 9 7 6 9 11 14 16 10 9 12 7 9 9 10 13 6 13 13 6 6 3 4 7 6
4 5 4 9 11 7 5 4 4 3 3 3 4 4 7 11 11 9 7 7 6 6 5 5 4 3 3 4 5 5 5 5 5 6 6 6 5 4 3 3 4 3 5 5 5 6 8 9 8 10 10 9 10 8 9 8 9 8 9 10 7 7 8 9 9 9 14 16 10 11 16 11 11 11 14 13 9 16 11 7 8 1 7 9 7
3 4 5 7 10 8 6 4 3 3 3 3 4 4 5 8 10 9 8 7 6 6 5 5 5 5 4 4 5 5 4 5 4 4 5 5 5 4 3 4 4 4 5 6 6 8 10 9 8 10 11 12 9 6 9 8 7 8 8 8 6 6 6 8 9 8 9 11 12 16 19 15 13 12 14 13 13 17 10 9 8 6 11 8 6
3 3 4 6 9 8 6 5 4 3 3 3 4 4 5 6 8 8 8 7 7 7 6 6 6 6 5 5 5 5 5 5 5 5 5 4 4 4 4 5 5 5 4 7 8 8 10 8 8 9 10 10 10 9 9 8 7 8 7 7 7 7 8 9 8 9 13 15 19 24 22 16 14 16 16 14 15 14 8 6 6 10 9 4 4
3 3 4 5 8 9 7 6 4 4 4 4 4 4 5 5 6 7 8 7 7 7 7 7 6 6 5 5 5 5 5 5 5 5 4 5 5 4 5 6 5 3 4 8 9 10 8 8 9 9 10 8 10 12 11 12 10 7 7 10 9 9 13 16 15 16 21 22 19 19 17 13 12 17 17 15 16 10 4 5 7 10 4 2 5
3 3 4 4 6 8 7 6 4 5 4 4 4 4 5 5 5 5 6 7 7 7 7 6 6 6 6 7 7 6 6 5 5 4 4 4 5 6 6 7 5 2 4 9 10 10 7 8 10 9 11 8 11 12 11 16 12 7 5 7 8 14 22 21 22 20 16 14 8 8 11 9 9 17 17 11 10 6 5 8 8 7 3 4 6
3 3 4 4 6 8 7 8 6 5 4 5 5 4 4 4 5 5 5 5 5 5 5 6 5 6 7 7 8 8 9 8 8 6 6 5 6 6 6 6 4 2 4 9 9 9 9 9 10 10 10 8 12 11 10 13 11 9 4 7 11 17 25 15 12 14 11 9 4 8 11 10 13 19 15 6 3 4 8 8 6 6 4 4 7
3 3 4 3 4 7 7 8 7 7 5 5 6 5 4 4 5 5 5 4 4 4 4 5 5 6 7 7 7 9 11 12 11 10 9 7 7 6 6 5 3 4 5 8 7 8 10 8 9 10 9 9 12 10 12 12 9 11 8 14 14 13 20 11 8 10 9 7 3 11 14 12 16 15 10 4 -1 4 9 7 7 6 4 6 9
4 4 4 3 4 5 6 7 7 8 7 6 6 6 6 5 5 5 6 6 5 5 5 6 6 7 7 7 7 9 12 13 13 12 11 9 8 6 6 4 4 4 6 8 6 8 10 7 9 10 8 10 11 9 11 8 7 12 10 15 14 12 15 9 7 8 5 3 5 13 12 9 10 10 10 5 -3 3 12 8 7 6 5 10 9
4 4 4 3 4 4 4 5 6 7 7 7 7 6 7 6 6 6 6 6 6 6 6 7 7 7 8 7 7 8 9 9 9 9 9 8 7 5 4 3 4 4 6 8 6 7 8 7 8 9 10 9 10 9 9 7 7 9 7 10 11 11 12 8 6 5 4 4 9 12 8 6 9 11 12 7 -2 3 12 8 7 7 9 10 7
4 4 4 4 3 4 4 4 5 6 6 7 7 6 7 6 6 6 7 7 7 7 7 7 7 7 8 7 7 7 7 6 6 7 7 7 6 6 4 3 5 4 6 7 6 7 7 7 8 8 9 9 10 8 9 9 8 8 6 8 9 9 10 10 5 1 6 8 7 9 7 7 11 13 13 8 -1 4 11 9 7 8 10 8 5
4 3 2 3 3 3 4 4 4 4 5 6 6 6 6 6 7 7 7 8 8 8 8 8 7 8 8 8 8 7 7 5 4 6 6 5 6 7 5 4 5 4 6 6 5 8 7 7 9 9 9 10 11 9 8 8 9 10 7 7 9 9 7 7 7 1 6 9 6 8 8 8 12 13 13 6 0 8 11 8 9 9 9 6 4
3 4 3 3 3 3 3 4 4 4 4 5 5 5 6 6 6 6 7 8 8 8 8 8 7 8 8 8 7 6 6 6 5 5 5 5 6 6 3 4 5 4 6 6 6 10 8 6 8 9 9 10 10 9 8 7 10 9 8 9 8 8 4 5 11 5 4 9 7 8 10 10 13 12 10 4 3 11 10 10 9 8 8 5 5
3 3 3 3 3 3 3 4 4 4 4 4 5 5 5 5 5 5 6 6 7 7 7 7 6 6 6 7 6 5 5 6 6 5 5 6 7 6 4 4 5 5 7 6 6 10 8 5 7 8 9 9 7 8 8 8 8 6 9 8 6 10 4 4 9 5 7 10 7 9 11 11 12 10 7 4 7 11 8 11 9 6 8 5 5
3 3 3 3 3 3 3 3 4 5 4 4 4 5 5 5 5 5 5 5 6 6 7 6 6 6 5 6 5 5 5 6 7 5 5 5 6 8 7 6 5 5 8 7 5 9 9 5 6 7 5 5 5 5 6 6 6 7 8 5 12 13 1 4 7 7 11 8 5 9 8 9 11 8 6 6 8 10 10 10 8 6 7 5 5
4 3 3 3 3 4 3 3 4 4 5 5 4 4 5 5 6 5 5 5 5 5 6 6 6 6 6 6 6 6 6 7 7 6 6 4 5 8 8 5 2 5 11 7 4 9 10 6 6 6 2 7 7 3 4 5 5 6 4 7 18 10 -2 7 7 6 10 5 6 8 7 9 10 8 6 8 9 10 10 8 7 6 6 6 5
5 4 3 3 3 4 4 3 3 5 4 5 5 4 5 6 6 6 6 5 5 5 5 5 6 6 6 6 6 6 6 6 7 7 6 4 4 7 5 4 4 9 14 7 4 8 9 7 7 5 3 9 9 4 6 6 6 5 4 13 15 0 -2 8 5 5 7 5 7 7 8 10 10 9 7 7 10 10 8 8 7 6 7 6 4
5 5 4 4 4 3 5 4 2 4 5 4 5 4 5 5 6 6 6 6 5 6 5 6 5 5 6 5 5 5 5 5 6 7 6 4 6 6 1 3 8 9 12 8 3 6 6 8 7 5 7 7 6 8 9 5 6 8 7 12 10 -1 2 9 6 4 6 7 7 7 10 10 11 10 7 8 9 9 7 8 7 6 7 5 3
4 2 3 5 5 4 5 5 2 3 5 4 4 5 5 4 5 5 5 5 5 5 5 6 5 5 5 5 6 5 5 5 6 6 5 6 7 7 1 2 9 2 4 9 6 5 4 8 8 6 8 6 3 6 9 6 6 11 9 6 7 7 7 8 6 3 6 9 8 8 9 9 11 10 8 8 9 9 8 7 7 7 7 5 4
4 2 5 5 4 5 5 4 2 4 4 4 5 4 4 4 5 4 4 4 4 5 5 6 5 5 5 5 6 6 6 5 6 5 5 7 6 8 6 5 8 -5 -1 12 10 6 2 4 5 6 10 10 6 4 7 8 7 10 10 6 7 8 7 6 6 5 7 9 9 8 8 8 10 10 8 8 8 9 8 6 7 7 7 6 4
4 3 5 5 4 5 6 5 3 4 3 4 5 4 4 4 4 3 5 5 5 6 5 6 5 4 5 5 6 6 7 6 7 6 5 7 5 7 7 7 8 -2 4 11 5 6 7 3 4 9 10 8 9 7 7 7 6 8 8 8 8 8 7 7 7 7 8 8 9 8 7 9 9 10 8 8 9 7 7 6 7 7 8 7 4
3 4 4 3 5 5 7 7 5 4 3 4 4 3 4 4 4 4 6 5 4 5 5 5 5 5 6 5 6 6 7 7 7 7 6 7 6 8 8 8 7 3 7 6 3 7 7 4 5 10 8 5 8 9 9 7 6 7 5 7 8 8 8 8 7 7 8 7 9 8 7 8 9 11 9 8 7 6 7 6 7 7 7 6 4
6 6 3 3 5 5 6 7 6 6 4 5 4 4 4 4 5 4 5 5 4 5 5 5 4 5 5 4 5 6 7 7 7 8 8 7 7 8 7 8 7 6 6 2 6 7 3 5 5 6 6 6 7 5 9 9 6 6 5 6 7 7 8 8 7 7 7 7 8 8 7 7 10 11 9 8 7 6 6 7 7 7 7 6 3
9 6 4 5 4 4 6 6 7 7 5 5 4 5 5 5 6 4 4 5 4 4 4 4 4 4 5 5 4 4 6 7 7 7 8 8 7 8 7 8 9 9 5 2 10 6 1 7 5 2 5 7 6 3 7 8 7 8 5 5 5 6 8 7 7 7 7 8 8 8 7 7 9 11 9 8 7 6 6 7 8 7 6 4 2
7 8 7 5 4 4 6 6 6 6 6 6 5 6 5 5 6 5 4 4 4 4 4 4 4 4 4 5 4 4 6 6 6 6 7 8 7 8 8 8 7 8 7 6 12 2 -5 6 6 4 7 7 6 5 7 7 7 8 6 6 5 5 7 7 8 8 7 8 8 7 7 7 8 10 10 9 7 7 6 6 8 7 5 4 3
7 8 8 6 5 4 4 5 5 5 6 6 6 6 5 4 5 6 5 5 5 4 4 5 5 5 5 6 5 5 5 6 6 6 7 6 6 7 6 4 4 8 8 4 9 4 -1 9 8 3 5 5 5 7 7 7 7 7 8 8 6 6 6 7 8 7 6 7 8 7 7 7 8 10 11 10 8 8 7 6 7 7 5 4 3
8 8 10 10 8 5 3 5 6 6 6 6 7 7 5 5 4 5 6 6 5 4 4 5 6 6 6 7 6 6 6 5 6 5 5 5 5 6 4 1 1 7 8 6 10 7 5 9 4 1 7 6 6 9 6 7 9 7 7 8 7 6 5 7 8 7 7 7 8 8 7 6 6 8 10 10 9 8 8 7 6 6 6 4 4
8 12 13 10 8 7 5 5 5 4 4 5 6 6 6 6 5 5 6 5 4 5 5 5 6 6 6 6 5 6 4 4 5 5 5 5 6 6 6 2 2 7 7 8 10 5 4 2 -2 4 11 7 4 7 7 5 7 7 7 7 6 6 6 6 6 8 9 8 9 7 7 7 6 7 9 10 9 8 8 7 6 6 6 5 4
7 11 13 12 9 7 5 4 4 4 5 6 5 4 5 5 5 4 5 6 4 4 5 6 5 4 4 4 4 5 4 3 4 4 7 9 10 8 8 6 6 9 6 8 7 1 1 -2 2 13 12 7 3 6 11 5 4 9 10 9 6 5 7 8 7 7 8 9 10 8 8 7 6 7 7 9 9 8 8 7 7 6 5 5 4
9 9 11 13 9 6 7 6 5 5 6 6 5 5 6 5 5 6 5 5 4 4 6 6 3 2 4 4 6 7 6 7 5 5 8 10 11 7 8 10 11 12 9 10 5 -1 4 1 7 14 6 4 4 4 8 4 4 8 8 9 9 7 7 7 7 6 7 9 10 10 10 7 7 6 6 8 8 8 8 7 7 7 6 5 4
10 13 15 15 14 11 9 10 11 9 8 7 5 5 5 5 6 7 6 5 5 6 6 5 2 2 4 4 7 9 8 9 6 4 6 8 11 10 13 15 13 14 12 12 7 3 10 5 3 9 5 6 7 6 8 7 8 7 5 8 8 8 8 6 7 7 5 7 8 11 11 9 8 7 6 7 7 7 7 7 6 6 6 5 4
10 15 13 10 12 9 6 11 14 10 8 7 5 4 5 6 7 7 6 7 6 6 7 6 6 4 5 6 5 5 5 7 9 12 13 13 15 15 15 12 12 16 13 14 12 7 9 4 3 8 7 7 7 7 8 7 7 6 7 9 9 10 9 7 7 7 6 5 6 9 11 10 9 8 7 7 7 8 7 7 7 6 6 5 5
9 13 8 5 9 7 4 7 9 7 8 9 7 5 5 6 7 7 6 7 6 7 8 6 7 7 6 6 5 8 14 17 21 24 19 14 12 11 11 12 18 24 19 19 19 11 7 6 5 4 5 11 12 8 6 5 5 5 6 6 7 9 10 10 8 7 9 7 5 6 9 10 10 9 8 7 7 7 7 8 7 7 7 6 6
10 12 9 7 12 13 5 1 1 6 9 8 6 7 9 10 9 7 8 9 8 8 11 15 20 19 13 13 18 23 26 23 19 17 12 9 9 8 10 13 20 29 28 28 27 13 7 10 10 8 10 15 14 9 7 6 7 8 9 6 4 5 7 10 11 8 7 8 7 6 6 8 9 10 10 9 8 7 7 7 7 7 6 5 5
9 11 11 7 13 17 9 3 1 1 5 3 4 8 11 12 8 8 12 12 9 8 16 28 32 28 23 24 25 22 18 14 9 9 9 9 10 9 10 11 14 21 26 30 28 16 10 13 15 13 11 13 15 15 11 8 8 9 10 8 7 7 5 7 11 11 8 7 6 6 5 5 6 8 9 10 10 9 8 7 7 6 6 5 5
10 11 14 7 10 18 10 8 10 7 8 6 7 9 8 8 8 10 14 13 16 18 19 24 22 18 21 19 11 8 8 9 7 9 10 10 12 12 10 10 11 13 16 23 25 20 18 19 17 14 12 13 13 13 9 6 8 8 8 8 8 8 6 7 9 10 11 9 5 7 8 6 5 6 8 10 9 9 9 8 8 7 6 6 5
11 9 12 9 16 27 19 17 22 19 16 11 9 10 7 9 10 14 21 23 26 25 20 19 15 13 15 10 4 6 8 8 8 9 10 10 11 12 12 12 13 11 10 13 15 15 16 17 18 17 17 18 15 13 11 11 12 9 7 9 10 9 9 9 8 6 10 11 8 7 8 8 7 7 8 8 8 10 10 10 10 9 8 8 7
16 12 14 16 22 28 22 19 21 22 24 22 20 23 23 23 23 25 28 25 19 13 10 10 8 7 8 6 6 8 7 7 8 8 8 8 8 9 10 10 11 12 10 11 12 13 12 12 13 12 12 16 17 15 15 17 18 16 16 12 8 9 9 8 8 7 9 10 10 10 8 6 7 7 7 6 6 9 9 9 10 10 10 10 9
19 17 14 15 17 16 14 13 13 19 25 21 26 37 35 29 27 26 20 11 6 4 4 5 5 7 7 6 6 6 6 6 6 7 7 6 6 6 6 7 7 8 8 9 11 12 11 10 12 12 9 11 11 10 11 14 14 16 21 20 14 13 10 7 9 9 8 8 10 12 12 10 8 8 8 6 6 6 7 7 7 8 9 9 9
16 15 11 10 14 15 15 14 12 18 18 10 22 36 29 20 18 15 10 5 3 4 7 10 10 9 7 6 6 6 7 6 5 6 6 5 6 6 5 6 6 5 5 7 7 8 8 8 10 10 9 9 9 9 10 12 13 12 14 17 18 18 17 13 12 11 9 9 8 7 9 11 11 9 8 8 6 7 7 6 7 6 5 6 7
12 12 9 7 11 13 14 16 13 14 11 5 13 20 15 16 17 11 8 4 2 6 8 9 7 6 6 6 6 6 6 5 5 5 5 5 5 5 5 5 4 5 5 5 5 5 5 6 6 7 7 7 7 7 7 8 12 13 12 13 13 15 16 15 15 15 12 10 8 5 6 9 9 9 8 9 8 7 8 7 8 7 4 6 6
10 10 9 7 9 11 11 14 14 12 13 12 12 13 10 12 13 8 4 3 5 8 6 4 4 5 6 5 5 6 6 5 4 4 4 4 4 4 4 4 4 4 5 4 4 4 4 4 4 5 5 5 5 6 6 5 7 8 10 12 12 12 13 12 15 18 15 14 13 8 8 8 7 7 7 10 10 8 8 8 7 7 7 8 8
9 8 9 8 9 10 8 9 12 11 13 13 12 16 13 7 6 4 2 4 7 7 7 6 6 5 5 6 6 5 6 5 4 5 5 4 4 5 4 4 4 4 4 4 4 4 4 3 3 3 3 4 4 3 4 6 6 6 7 8 9 11 12 11 13 15 15 17 17 15 12 9 7 7 8 9 10 8 9 9 8 7 8 8 8
9 8 8 9 9 10 8 7 8 7 10 11 9 12 11 4 4 5 4 7 7 6 7 5 4 5 4 5 5 5 5 6 5 4 4 4 4 4 4 4 4 4 4 3 3 4 3 3 3 3 3 3 4 3 4 5 4 4 5 6 5 6 7 9 10 11 13 15 15 16 16 15 14 13 10 8 7 8 9 11 10 9 9 9 7
6 8 8 8 9 9 9 8 6 5 7 9 7 6 7 4 5 7 5 6 6 5 5 4 4 5 5 5 5 5 5 4 4 3 3 4 3 3 4 3 3 3 3 3 3 3 3 4 3 3 3 3 3 3 3 4 4 4 4 4 4 4 5 7 8 8 10 13 12 12 14 15 17 16 14 13 10 8 6 7 10 10 10 10 9
Height
5895 5895 5894 5895 5896 5896 5896 5897 5897 5896 5896 5897 5897 5897 5898 5898 5899 5899 5899 5900 5900 5900 5900 5901 5901 5902 5902 5903 5903 5902 5902 5901 5901 5901 5902 5903 5904 5904 5904 5904 5903 5903 5903 5903 5903 5903 5903 5903 5903 5904 5905 5905 5904 5903 5902 5903 5903 5903 5905 5904 5903 5905 5905 5905 5906 5906 5906 5905 5905 5906 5907 5908 5908 5907 5907 5907 5908 5908 5909 5909 5910 5910 5911 5912 5912
5895 5895 5895 5895 5896 5896 5896 5896 5896 5896 5896 5896 5897 5897 5898 5899 5900 5900 5900 5900 5900 5900 5901 5901 5902 5902 5903 5903 5903 5903 5903 5903 5902 5902 5903 5904 5904 5904 5904 5904 5904 5904 5904 5904 5903 5903 5903 5903 5903 5904 5904 5904 5903 5902 5900 5900 5902 5902 5902 5902 5903 5905 5905 5905 5905 5905 5905 5904 5904 5905 5906 5907 5906 5906 5907 5907 5907 5908 5909 5909 5910 5910 5911 5912 5912
5895 5895 5895 5895 5896 5896 5896 5896 5897 5897 5896 5896 5897 5898 5899 5900 5901 5901 5901 5900 5901 5901 5902 5902 5903 5903 5903 5904 5904 5904 5904 5904 5904 5904 5904 5904 5904 5904 5904 5905 5905 5905 5904 5904 5903 5903 5903 5903 5903 5903 5903 5903 5901 5900 5899 5899 5901 5901 5901 5901 5903 5904 5905 5905 5905 5904 5904 5903 5903 5903 5904 5906 5905 5905 5906 5907 5907 5908 5908 5909 5910 5910 5911 5912 5912
5896 5896 5896 5896 5896 5896 5897 5897 5897 5897 5897 5897 5898 5899 5900 5901 5901 5901 5901 5901 5901 5902 5903 5904 5904 5904 5904 5904 5905 5905 5905 5905 5905 5905 5905 5905 5905 5905 5905 5905 5905 5905 5904 5904 5903 5903 5903 5902 5902 5903 5903 5902 5901 5900 5900 5900 5900 5901 5900 5901 5902 5903 5904 5904 5904 5903 5903 5902 5902 5902 5903 5904 5905 5905 5906 5906 5907 5907 5908 5909 5910 5911 5911 5912 5912
5896 5896 5896 5897 5897 5897 5897 5897 5898 5898 5898 5899 5899 5900 5900 5900 5900 5901 5901 5902 5902 5903 5904 5905 5905 5905 5905 5905 5905 5906 5906 5906 5906 5906 5906 5906 5906 5905 5905 5905 5905 5905 5904 5904 5903 5902 5902 5902 5902 5902 5903 5902 5901 5899 5899 5901 5901 5900 5900 5900 5901 5902 5903 5903 5903 5902 5902 5901 5901 5901 5902 5903 5904 5904 5905 5906 5906 5907 5907 5908 5910 5911 5911 5912 5913
5895 5896 5897 5897 5897 5897 5897 5897 5898 5899 5900 5900 5900 5900 5900 5899 5900 5900 5901 5902 5903 5904 5905 5905 5906 5906 5906 5906 5906 5906 5906 5907 5907 5907 5907 5907 5907 5907 5906 5905 5905 5905 5904 5903 5902 5902 5902 5901 5901 5902 5903 5902 5899 5897 5898 5901 5901 5900 5900 5900 5900 5902 5902 5902 5901 5901 5900 5900 5900 5900 5901 5902 5903 5904 5904 5905 5906 5906 5907 5908 5909 5910 5911 5912 5913
5896 5896 5897 5897 5897 5898 5898 5898 5899 5900 5900 5900 5900 5899 5899 5899 5900 5901 5902 5903 5904 5904 5905 5906 5906 5906 5906 5906 5907 5907 5907 5907 5907 5907 5908 5908 5908 5908 5907 5906 5906 5905 5904 5903 5902 5902 5902 5901 5901 5901 5902 5900 5898 5897 5898 5901 5901 5900 5900 5900 5900 5901 5901 5900 5900 5900 5899 5899 5899 5900 5900 5901 5902 5903 5904 5905 5905 5906 5907 5908 5909 5910 5911 5912 5912
5896 5897 5898 5898 5898 5899 5899 5899 5900 5900 5900 5900 5900 5900 5900 5900 5900 5901 5902 5903 5904 5904 5905 5906 5906 5907 5907 5907 5907 5907 5907 5907 5907 5907 5907 5907 5908 5908 5908 5907 5906 5906 5905 5904 5903 5903 5902 5900 5900 5900 5901 5900 5899 5899 5899 5900 5901 5900 5900 5900 5900 5900 5900 5899 5899 5899 5899 5899 5899 5899 5900 5900 5901 5902 5903 5904 5904 5905 5907 5908 5909 5911 5911 5912 5912
5897 5898 5898 5898 5899 5899 5900 5900 5899 5899 5900 5900 5901 5901 5901 5901 5901 5902 5902 5903 5904 5904 5905 5906 5906 5907 5907 5907 5907 5907 5907 5907 5907 5907 5907 5907 5907 5907 5907 5907 5906 5906 5906 5904 5902 5902 5901 5900 5899 5899 5900 5900 5899 5899 5899 5899 5900 5900 5900 5899 5899 5898 5898 5897 5898 5898 5898 5899 5899 5899 5899 5900 5900 5901 5902 5903 5903 5904 5906 5908 5909 5910 5912 5912 5912
5898 5898 5898 5898 5899 5899 5899 5900 5899 5900 5900 5901 5902 5902 5902 5902 5902 5902 5903 5903 5904 5904 5905 5905 5906 5907 5907 5908 5908 5908 5908 5908 5907 5907 5907 5907 5907 5907 5907 5907 5906 5906 5905 5904 5903 5901 5900 5899 5898 5898 5899 5899 5899 5899 5898 5898 5899 5899 5899 5898 5898 5897 5896 5897 5897 5897 5898 5898 5898 5898 5899 5899 5900 5900 5901 5902 5903 5904 5906 5908 5909 5910 5911 5912 5912
5898 5898 5899 5899 5899 5899 5900 5900 5900 5901 5901 5902 5903 5903 5903 5903 5903 5903 5904 5904 5904 5905 5905 5906 5906 5907 5907 5907 5908 5908 5908 5908 5908 5908 5908 5908 5907 5907 5907 5907 5906 5905 5905 5904 5903 5901 5899 5897 5897 5898 5898 5898 5898 5898 5898 5897 5898 5898 5897 5897 5897 5896 5896 5896 5897 5898 5898 5898 5898 5898 5899 5899 5899 5900 5901 5902 5903 5904 5906 5907 5909 5910 5911 5912 5913
5900 5900 5900 5900 5900 5900 5900 5901 5901 5902 5902 5903 5903 5904 5904 5904 5904 5904 5905 5905 5906 5906 5906 5906 5906 5907 5907 5907 5907 5908 5908 5908 5908 5908 5908 5908 5908 5907 5907 5907 5906 5905 5904 5904 5903 5902 5900 5897 5897 5897 5898 5897 5897 5897 5897 5897 5897 5897 5896 5896 5896 5896 5895 5896 5897 5898 5899 5899 5899 5899 5899 5899 5900 5900 5901 5902 5904 5905 5906 5907 5909 5910 5911 5912 5913
5901 5901 5901 5902 5902 5901 5901 5902 5902 5902 5903 5903 5904 5904 5904 5905 5905 5905 5906 5906 5906 5906 5907 5907 5907 5907 5907 5907 5908 5908 5908 5908 5908 5908 5908 5908 5908 5908 5907 5906 5905 5904 5903 5903 5902 5901 5900 5899 5897 5896 5897 5897 5896 5896 5897 5897 5897 5896 5896 5896 5896 5896 5896 5896 5897 5898 5899 5899 5899 5899 5899 5900 5900 5901 5902 5903 5904 5905 5906 5907 5909 5910 5911 5912 5913
5902 5902 5902 5903 5903 5902 5902 5902 5902 5903 5903 5904 5904 5904 5904 5905 5905 5906 5906 5907 5907 5907 5907 5907 5907 5907 5907 5908 5908 5908 5908 5908 5908 5908 5908 5908 5908 5908 5907 5906 5905 5904 5903 5902 5902 5902 5901 5900 5898 5897 5897 5897 5896 5897 5897 5897 5897 5896 5896 5896 5897 5898 5898 5898 5898 5899 5900 5900 5900 5900 5900 5900 5901 5901 5902 5904 5905 5905 5906 5907 5909 5910 5911 5912 5913
5902 5902 5903 5903 5903 5903 5903 5903 5903 5903 5904 5904 5904 5904 5905 5905 5906 5906 5907 5907 5908 5908 5908 5908 5908 5908 5908 5909 5909 5909 5908 5908 5908 5908 5909 5908 5908 5908 5907 5906 5905 5904 5904 5903 5902 5902 5902 5901 5899 5898 5897 5897 5898 5898 5898 5898 5898 5897 5897 5897 5899 5899 5899 5899 5899 5900 5901 5901 5900 5900 5900 5901 5902 5902 5903 5904 5905 5906 5906 5907 5909 5910 5911 5912 5913
5902 5903 5903 5904 5904 5904 5904 5903 5904 5904 5904 5905 5905 5905 5905 5906 5906 5907 5907 5908 5908 5909 5909 5909 5909 5909 5909 5910 5909 5909 5909 5909 5909 5909 5909 5908 5908 5908 5907 5907 5906 5905 5904 5903 5903 5903 5902 5901 5900 5899 5898 5898 5899 5899 5900 5899 5899 5898 5897 5898 5899 5899 5900 5900 5900 5901 5901 5901 5901 5901 5901 5902 5902 5903 5904 5905 5906 5906 5906 5907 5909 5910 5911 5912 5914
5902 5903 5903 5904 5904 5904 5905 5904 5905 5905 5905 5905 5906 5906 5906 5907 5907 5908 5908 5909 5909 5909 5910 5910 5910 5910 5910 5910 5910 5910 5910 5909 5909 5909 5909 5909 5908 5908 5908 5907 5907 5906 5905 5904 5903 5903 5903 5902 5901 5900 5899 5899 5899 5900 5900 5900 5900 5899 5898 5898 5899 5899 5900 5900 5900 5901 5902 5902 5901 5902 5902 5902 5903 5903 5904 5905 5906 5907 5907 5908 5909 5910 5911 5912 5914
5902 5902 5903 5904 5904 5905 5905 5905 5906 5906 5906 5906 5907 5907 5907 5908 5908 5908 5909 5910 5910 5911 5911 5911 5911 5911 5911 5911 5911 5911 5910 5909 5909 5909 5909 5909 5908 5908 5908 5907 5907 5906 5905 5904 5903 5903 5903 5903 5902 5901 5900 5900 5900 5901 5901 5901 5900 5900 5899 5899 5899 5899 5900 5901 5901 5901 5902 5902 5902 5902 5903 5903 5903 5903 5904 5905 5907 5907 5907 5908 5909 5910 5911 5913 5914
5901 5902 5903 5904 5905 5905 5906 5906 5907 5907 5907 5907 5908 5908 5908 5908 5909 5909 5910 5911 5911 5912 5912 5912 5912 5912 5912 5912 5912 5911 5911 5910 5910 5910 5910 5909 5909 5908 5908 5908 5907 5907 5906 5905 5904 5904 5904 5904 5903 5903 5902 5901 5901 5902 5902 5902 5901 5901 5900 5899 5900 5900 5901 5901 5901 5902 5902 5902 5903 5903 5903 5903 5903 5904 5904 5906 5907 5908 5908 5908 5909 5910 5911 5913 5914
5901 5902 5903 5904 5904 5905 5906 5907 5907 5907 5908 5908 5908 5909 5909 5909 5910 5910 5911 5911 5912 5913 5913 5913 5913 5913 5913 5913 5912 5912 5911 5911 5911 5911 5911 5910 5910 5909 5908 5908 5908 5908 5907 5906 5905 5904 5904 5905 5904 5903 5903 5903 5902 5902 5903 5903 5902 5902 5901 5900 5901 5901 5902 5901 5901 5901 5902 5903 5903 5903 5904 5903 5903 5904 5905 5906 5907 5908 5908 5908 5910 5911 5912 5914 5915
5901 5902 5903 5903 5904 5905 5906 5907 5907 5908 5908 5908 5909 5909 5910 5910 5911 5911 5912 5912 5913 5913 5913 5913 5913 5913 5913 5913 5913 5912 5912 5912 5912 5911 5911 5911 5911 5910 5910 5909 5909 5908 5908 5907 5906 5905 5905 5905 5905 5904 5903 5903 5903 5903 5903 5904 5904 5903 5902 5901 5901 5902 5903 5903 5901 5901 5902 5902 5902 5903 5904 5904 5904 5905 5906 5907 5907 5908 5908 5909 5910 5911 5913 5914 5915
5902 5902 5903 5904 5904 5905 5906 5907 5907 5908 5908 5909 5909 5910 5910 5911 5912 5912 5912 5913 5913 5913 5914 5914 5914 5914 5914 5913 5913 5913 5912 5912 5912 5912 5912 5912 5911 5911 5910 5910 5909 5909 5908 5908 5907 5906 5905 5905 5905 5904 5904 5904 5903 5902 5903 5904 5904 5904 5903 5902 5901 5902 5903 5903 5903 5902 5902 5902 5902 5903 5904 5904 5904 5905 5906 5906 5907 5908 5908 5909 5911 5912 5913 5915 5916
5903 5903 5903 5904 5905 5905 5906 5906 5907 5908 5908 5909 5909 5910 5911 5911 5912 5912 5913 5913 5913 5914 5914 5914 5915 5915 5915 5914 5913 5913 5913 5913 5912 5912 5912 5912 5911 5911 5911 5910 5910 5909 5908 5908 5908 5907 5906 5905 5905 5905 5905 5904 5904 5903 5903 5904 5904 5905 5905 5903 5902 5902 5902 5902 5903 5903 5903 5903 5903 5904 5904 5904 5904 5905 5906 5906 5907 5908 5909 5910 5911 5913 5914 5915 5916
5903 5903 5904 5905 5905 5906 5906 5906 5907 5907 5908 5909 5909 5910 5911 5912 5912 5912 5912 5913 5913 5914 5914 5914 5914 5915 5915 5915 5914 5913 5913 5912 5912 5912 5912 5912 5912 5911 5911 5910 5910 5909 5909 5908 5908 5907 5906 5906 5906 5906 5905 5905 5905 5904 5904 5904 5904 5904 5905 5905 5904 5903 5902 5902 5903 5904 5904 5904 5904 5904 5904 5905 5905 5906 5906 5906 5907 5908 5909 5910 5912 5913 5915 5916 5916
5903 5904 5905 5905 5906 5906 5906 5906 5907 5907 5908 5909 5909 5910 5911 5912 5912 5912 5912 5912 5913 5913 5914 5914 5914 5914 5914 5914 5914 5914 5913 5913 5912 5912 5912 5911 5911 5911 5910 5910 5910 5910 5909 5908 5908 5908 5907 5907 5907 5906 5906 5905 5905 5904 5905 5905 5904 5904 5905 5906 5905 5904 5903 5903 5903 5904 5904 5904 5905 5905 5904 5905 5905 5906 5906 5907 5907 5908 5910 5911 5912 5914 5915 5916 5917
5902 5904 5905 5906 5906 5906 5907 5907 5907 5907 5908 5908 5909 5910 5910 5911 5911 5912 5912 5912 5912 5913 5913 5914 5913 5913 5913 5913 5914 5914 5914 5913 5913 5912 5912 5911 5911 5911 5910 5910 5909 5909 5909 5909 5908 5907 5907 5907 5907 5907 5906 5906 5905 5905 5906 5906 5905 5904 5904 5906 5906 5906 5905 5904 5904 5904 5904 5905 5905 5905 5905 5905 5906 5906 5907 5907 5908 5909 5910 5912 5913 5914 5915 5916 5917
5902 5902 5904 5905 5906 5906 5907 5907 5907 5907 5908 5908 5909 5909 5910 5910 5910 5911 5912 5912 5912 5913 5913 5913 5913 5913 5913 5913 5913 5913 5913 5913 5913 5912 5912 5912 5911 5911 5910 5910 5909 5909 5910 5910 5909 5908 5907 5907 5907 5906 5906 5906 5906 5906 5907 5906 5905 5904 5904 5906 5906 5906 5906 5905 5905 5905 5905 5905 5905 5905 5905 5906 5906 5907 5907 5908 5909 5910 5911 5912 5913 5915 5916 5917 5918
5901 5901 5902 5904 5905 5906 5906 5906 5907 5907 5907 5908 5908 5908 5909 5909 5909 5910 5910 5911 5912 5912 5912 5912 5913 5913 5912 5912 5912 5912 5912 5912 5912 5912 5912 5912 5911 5911 5910 5910 5910 5909 5909 5910 5909 5909 5908 5907 5906 5905 5906 5905 5905 5906 5907 5906 5905 5905 5905 5905 5906 5907 5907 5907 5906 5906 5905 5905 5906 5906 5906 5906 5907 5908 5908 5909 5909 5910 5911 5913 5914 5915 5916 5917 5918
5900 5901 5901 5903 5904 5904 5905 5906 5906 5906 5907 5907 5908 5908 5908 5908 5909 5909 5909 5910 5910 5911 5911 5911 5911 5911 5911 5911 5911 5911 5911 5912 5912 5912 5912 5912 5911 5911 5910 5910 5909 5909 5909 5908 5909 5909 5908 5908 5907 5906 5907 5905 5904 5905 5906 5906 5905 5905 5906 5906 5906 5908 5908 5908 5907 5907 5906 5906 5907 5907 5907 5907 5908 5908 5909 5909 5910 5911 5912 5913 5914 5915 5917 5918 5918
5899 5900 5900 5901 5902 5903 5904 5904 5905 5906 5906 5907 5908 5908 5908 5908 5908 5909 5909 5909 5909 5909 5910 5910 5910 5910 5910 5910 5910 5910 5910 5911 5911 5911 5912 5911 5911 5911 5910 5910 5909 5909 5908 5908 5908 5908 5907 5907 5907 5906 5906 5905 5904 5904 5904 5904 5904 5905 5906 5906 5906 5907 5907 5908 5907 5907 5907 5907 5908 5908 5908 5908 5908 5909 5910 5910 5911 5911 5912 5913 5915 5916 5917 5917 5918
5897 5898 5899 5899 5901 5902 5902 5903 5904 5905 5906 5907 5908 5908 5908 5908 5909 5909 5909 5908 5908 5909 5909 5909 5909 5909 5909 5908 5908 5909 5909 5909 5910 5910 5910 5910 5910 5909 5910 5910 5909 5909 5908 5907 5907 5907 5907 5907 5907 5905 5905 5905 5905 5904 5903 5903 5903 5904 5905 5906 5906 5906 5906 5907 5907 5907 5907 5908 5909 5909 5909 5909 5909 5910 5910 5911 5912 5912 5913 5914 5915 5916 5917 5917 5918
5896 5897 5897 5898 5900 5900 5901 5901 5902 5904 5905 5906 5907 5907 5907 5908 5908 5908 5908 5908 5908 5908 5908 5908 5908 5908 5908 5908 5908 5908 5908 5908 5908 5909 5909 5909 5909 5908 5908 5908 5908 5908 5908 5907 5906 5907 5907 5907 5906 5905 5904 5905 5905 5903 5902 5902 5903 5903 5904 5905 5905 5905 5905 5906 5906 5906 5907 5908 5909 5909 5909 5910 5910 5910 5911 5912 5912 5913 5914 5914 5915 5916 5916 5917 5918
5895 5896 5896 5897 5898 5898 5899 5900 5901 5902 5904 5905 5905 5906 5906 5906 5907 5907 5908 5908 5908 5908 5908 5907 5908 5908 5908 5908 5907 5907 5907 5907 5908 5907 5908 5908 5908 5908 5907 5907 5907 5908 5907 5906 5906 5908 5908 5907 5906 5906 5905 5905 5904 5902 5901 5902 5903 5903 5902 5903 5904 5905 5905 5906 5906 5906 5906 5907 5908 5909 5910 5910 5910 5911 5911 5912 5913 5913 5914 5915 5915 5916 5916 5917 5918
5893 5895 5895 5895 5895 5897 5898 5898 5900 5901 5903 5904 5904 5904 5905 5906 5906 5907 5907 5908 5907 5907 5907 5907 5907 5907 5907 5907 5907 5907 5907 5907 5907 5907 5906 5906 5906 5906 5906 5906 5905 5906 5906 5906 5907 5909 5909 5909 5908 5907 5906 5905 5903 5902 5902 5902 5903 5903 5902 5902 5903 5904 5905 5906 5907 5906 5906 5906 5907 5908 5909 5910 5910 5910 5911 5911 5912 5913 5914 5915 5915 5916 5917 5917 5918
5892 5893 5893 5893 5894 5895 5895 5896 5898 5900 5901 5902 5903 5903 5903 5904 5904 5905 5905 5906 5906 5906 5906 5906 5906 5906 5906 5907 5907 5907 5907 5907 5906 5906 5905 5905 5905 5905 5905 5905 5904 5904 5904 5905 5906 5907 5908 5909 5908 5906 5905 5905 5903 5903 5903 5903 5903 5903 5903 5903 5903 5903 5904 5906 5907 5907 5907 5907 5907 5907 5908 5909 5909 5910 5910 5911 5912 5912 5913 5914 5915 5916 5917 5918 5918
5891 5891 5891 5891 5892 5892 5893 5894 5897 5899 5900 5900 5900 5901 5902 5902 5902 5903 5903 5904 5905 5905 5904 5905 5905 5905 5905 5906 5906 5906 5906 5906 5906 5905 5905 5904 5904 5904 5904 5903 5903 5903 5903 5903 5904 5905 5906 5906 5906 5905 5905 5905 5904 5904 5904 5904 5903 5903 5903 5903 5903 5903 5904 5905 5906 5907 5908 5908 5908 5908 5908 5909 5909 5910 5910 5911 5911 5912 5913 5914 5915 5915 5916 5917 5918
5889 5889 5889 5889 5890 5890 5891 5894 5897 5898 5898 5898 5899 5900 5901 5901 5901 5902 5903 5903 5903 5903 5903 5903 5904 5904 5904 5905 5905 5905 5905 5905 5905 5904 5904 5903 5903 5903 5903 5903 5903 5902 5902 5902 5902 5903 5904 5904 5905 5904 5904 5904 5904 5905 5905 5904 5904 5903 5903 5903 5903 5903 5903 5904 5905 5906 5907 5908 5908 5909 5909 5909 5910 5910 5911 5911 5911 5912 5912 5913 5914 5915 5916 5917 5918
5888 5888 5888 5887 5887 5887 5890 5895 5897 5896 5896 5898 5899 5899 5899 5899 5900 5901 5901 5901 5901 5901 5901 5902 5902 5902 5903 5903 5903 5903 5904 5904 5903 5903 5903 5903 5902 5902 5902 5902 5902 5901 5900 5900 5901 5902 5902 5903 5903 5903 5903 5903 5904 5905 5905 5904 5904 5904 5904 5904 5903 5903 5903 5903 5904 5905 5906 5907 5908 5908 5909 5909 5910 5910 5911 5911 5912 5912 5912 5913 5914 5915 5916 5917 5917
5887 5887 5886 5885 5885 5887 5892 5895 5895 5895 5896 5898 5898 5898 5898 5898 5899 5900 5900 5900 5900 5900 5900 5900 5900 5901 5901 5901 5901 5902 5902 5902 5902 5902 5902 5903 5903 5902 5902 5901 5900 5899 5898 5898 5899 5900 5901 5901 5902 5902 5902 5903 5903 5904 5905 5904 5904 5904 5904 5904 5904 5904 5904 5904 5904 5904 5905 5906 5906 5907 5908 5909 5909 5910 5910 5911 5912 5912 5912 5913 5914 5915 5915 5916 5916
5886 5885 5884 5884 5885 5889 5892 5893 5894 5895 5896 5897 5897 5897 5897 5897 5897 5898 5898 5899 5899 5899 5899 5898 5898 5899 5900 5899 5900 5900 5901 5901 5901 5902 5902 5902 5903 5903 5902 5901 5899 5897 5897 5897 5898 5899 5900 5900 5901 5902 5902 5902 5902 5903 5904 5904 5904 5904 5904 5905 5905 5905 5905 5905 5904 5904 5905 5906 5906 5906 5907 5908 5908 5909 5910 5910 5911 5911 5912 5912 5913 5914 5914 5915 5915
5884 5883 5882 5883 5884 5888 5891 5891 5892 5893 5894 5895 5895 5895 5895 5895 5896 5896 5897 5897 5898 5899 5898 5897 5897 5898 5898 5898 5898 5899 5900 5900 5901 5902 5902 5902 5903 5902 5901 5900 5899 5898 5897 5897 5898 5899 5900 5900 5901 5901 5901 5901 5901 5902 5903 5904 5904 5904 5904 5904 5904 5905 5906 5905 5905 5905 5905 5906 5906 5906 5907 5907 5907 5908 5909 5910 5910 5911 5911 5911 5912 5912 5913 5914 5914
5883 5882 5881 5882 5884 5888 5890 5889 5889 5891 5892 5893 5892 5892 5892 5893 5894 5894 5895 5896 5897 5897 5897 5896 5898 5898 5897 5896 5898 5899 5900 5901 5901 5901 5902 5902 5902 5902 5901 5901 5900 5899 5898 5898 5898 5899 5899 5900 5900 5901 5901 5901 5901 5901 5902 5903 5904 5903 5904 5904 5903 5903 5905 5905 5905 5905 5905 5906 5906 5906 5906 5907 5908 5909 5910 5911 5911 5911 5911 5911 5912 5912 5912 5913 5913
5882 5881 5881 5882 5884 5887 5888 5887 5888 5889 5890 5890 5890 5889 5890 5891 5892 5893 5894 5895 5895 5896 5896 5896 5898 5899 5897 5896 5898 5899 5900 5901 5901 5901 5902 5902 5902 5902 5902 5902 5901 5900 5899 5899 5899 5899 5900 5900 5900 5901 5900 5900 5901 5901 5902 5903 5903 5902 5903 5904 5904 5904 5904 5904 5904 5904 5904 5905 5905 5906 5906 5907 5908 5909 5910 5911 5913 5913 5913 5912 5912 5912 5912 5912 5913
5884 5883 5882 5883 5884 5886 5886 5886 5887 5888 5887 5888 5888 5887 5888 5890 5891 5892 5893 5894 5894 5895 5896 5897 5899 5899 5898 5897 5899 5900 5901 5901 5901 5902 5902 5902 5902 5903 5903 5903 5903 5901 5900 5900 5900 5901 5901 5901 5900 5900 5900 5900 5900 5901 5901 5901 5901 5901 5902 5903 5903 5903 5903 5902 5902 5904 5904 5904 5904 5904 5905 5905 5906 5907 5907 5908 5911 5912 5913 5913 5913 5913 5912 5912 5912
5886 5887 5886 5885 5885 5886 5887 5887 5888 5887 5887 5887 5887 5887 5888 5890 5891 5892 5893 5894 5895 5896 5897 5898 5899 5899 5898 5898 5899 5900 5901 5901 5901 5902 5903 5903 5903 5904 5904 5904 5904 5903 5902 5901 5901 5901 5901 5901 5900 5900 5900 5900 5900 5901 5901 5901 5901 5900 5900 5901 5901 5902 5902 5901 5901 5903 5904 5904 5903 5903 5904 5905 5906 5906 5906 5907 5908 5909 5910 5911 5911 5911 5911 5911 5911
5886 5887 5888 5887 5886 5886 5887 5888 5888 5887 5887 5887 5888 5888 5889 5891 5892 5893 5894 5895 5896 5897 5898 5899 5899 5899 5898 5899 5900 5901 5901 5902 5902 5903 5903 5904 5904 5904 5904 5904 5905 5904 5903 5903 5902 5902 5902 5901 5901 5900 5900 5900 5900 5900 5900 5900 5900 5900 5900 5900 5900 5901 5901 5901 5902 5903 5904 5903 5902 5902 5903 5905 5905 5905 5905 5906 5907 5907 5908 5908 5909 5909 5909 5910 5910
5883 5884 5885 5884 5884 5885 5887 5888 5888 5887 5886 5886 5887 5888 5890 5891 5892 5893 5894 5895 5896 5897 5899 5899 5899 5899 5899 5899 5900 5901 5902 5902 5902 5903 5903 5904 5904 5904 5905 5905 5905 5904 5904 5904 5903 5903 5902 5902 5902 5901 5901 5900 5900 5900 5900 5899 5900 5900 5900 5900 5899 5899 5899 5899 5900 5901 5902 5902 5901 5900 5901 5903 5903 5903 5903 5904 5905 5906 5906 5906 5906 5906 5907 5908 5908
5883 5883 5883 5882 5884 5886 5886 5887 5888 5887 5887 5888 5888 5889 5889 5890 5891 5893 5895 5896 5898 5899 5899 5900 5900 5900 5900 5900 5901 5902 5902 5902 5903 5903 5904 5904 5904 5905 5905 5905 5905 5905 5904 5904 5904 5903 5903 5902 5902 5901 5901 5900 5900 5900 5899 5899 5899 5899 5899 5899 5897 5897 5897 5897 5898 5899 5899 5899 5899 5899 5900 5901 5901 5901 5901 5902 5902 5903 5904 5904 5903 5904 5905 5906 5906
5884 5884 5884 5885 5886 5887 5888 5889 5889 5889 5890 5890 5891 5891 5891 5892 5893 5894 5896 5898 5899 5900 5900 5900 5900 5900 5900 5901 5902 5902 5903 5903 5903 5903 5904 5904 5905 5905 5905 5904 5904 5905 5904 5904 5904 5903 5903 5902 5902 5901 5901 5900 5900 5900 5899 5899 5898 5898 5898 5898 5897 5896 5896 5897 5897 5897 5897 5897 5897 5897 5898 5899 5900 5900 5900 5900 5901 5901 5901 5901 5901 5902 5903 5904 5904
5885 5885 5886 5886 5887 5888 5889 5890 5891 5891 5892 5892 5893 5893 5894 5894 5895 5896 5897 5899 5900 5901 5901 5900 5900 5900 5900 5901 5902 5902 5903 5903 5903 5903 5904 5904 5905 5905 5904 5904 5904 5904 5904 5904 5903 5903 5902 5902 5901 5901 5901 5900 5900 5899 5899 5898 5898 5897 5897 5897 5897 5896 5896 5896 5896 5896 5896 5896 5895 5896 5896 5897 5897 5898 5898 5898 5899 5899 5899 5899 5900 5900 5902 5902 5903
5887 5886 5886 5886 5887 5888 5889 5890 5891 5892 5893 5893 5894 5894 5894 5895 5896 5897 5898 5900 5901 5901 5900 5899 5900 5900 5901 5901 5902 5902 5903 5903 5903 5903 5904 5904 5904 5904 5904 5904 5903 5903 5903 5903 5902 5902 5901 5901 5901 5900 5900 5900 5899 5899 5898 5898 5897 5897 5896 5896 5896 5896 5896 5896 5895 5895 5894 5894 5894 5894 5894 5895 5895 5895 5895 5896 5897 5897 5897 5897 5898 5899 5900 5900 5901